Location: Spring Creek
(38.2870°N, 100.2160°W)
Time: 11:06:11
(UTC+00:00)

Cosmos 1862 - Pass Details

Date: 08 May 2021
Orbit: 538 x 554 km, 82.5° (Epoch: 22 June)

Event Time Altitude Azimuth Distance (km) Brightness Sun altitude
Rises 02:38:10 0° 350° (N) 2,716 7.5 -11.2°
Reaches altitude 10° 02:40:20 10° 349° (N) 1,822 6.6 -11.6°
Maximum altitude 02:44:20 75° 264° (W) 570 3.5 -12.2°
Drops below altitude 10° 02:48:19 10° 179° (S) 1,818 5.6 -12.9°
Enters shadow 02:49:05 - 179° (S) 2,132 6.0 -13.0°
